Weather History for North Island, CA

Change the Weather History Date:

Tuesday, December 11, 2012

  Actual Average Record
Temperature  
Mean Temperature 62 °F -  
Max Temperature 72 °F 62 °F 73 °F (2008)
Min Temperature 51 °F 47 °F 42 °F (1998)
Degree Days  
Heating Degree Days 4    
Growing Degree Days 12 (Base 50)    
Moisture  
Dew Point 49 °F    
Average Humidity 71    
Maximum Humidity 90    
Minimum Humidity 26    
Precipitation  
Precipitation 0.01 in - - ()
Sea Level Pressure  
Sea Level Pressure 30.00 in    
Wind  
Wind Speed 2 mph (NNW)    
Max Wind Speed 10 mph    
Max Gust Speed -    
Visibility 8 miles    
Events      
Averages and records for this station are not official NWS values.
T = Trace of Precipitation, MM = Missing Value Source: NWS Daily Summary

Daily Weather History Graph

Daily Weather History Graph

Search for Another Location

Airport:

Trip Planner

Search our weather history database for the weather conditions in past years. The results will help you decide how hot, cold, wet, or windy it might be!

Date:

Astronomy

Dec. 11, 2012 Rise Set
Actual Time 6:41 AM PST 4:43 PM PST
Civil Twilight 6:14 AM PST 5:10 PM PST
Nautical Twilight 5:43 AM PST 5:41 PM PST
Astronomical Twilight 5:13 AM PST 6:11 PM PST
Moon 4:44 AM PST (12/11) 3:24 PM PST (12/11)
Length of Visible Light 10h 56m
Length of Day
10h 02m
Waning Crescent, 4% of the Moon is Illuminated
Dec 11
Waning Crescent
Dec 13
New
Dec 19
First Quarter
Dec 28
Full
Jan 4
Last Quarter

Hourly Weather History & Observations

Time (PST) Temp. Dew Point Humidity Pressure Visibility Wind Dir Wind Speed Gust Speed Precip Events Conditions
12:52 AM 53.1 °F 46.9 °F 80% 30.04 in 4.0 mi Calm Calm - N/A   Partly Cloudy
1:52 AM 54.0 °F 48.9 °F 83% 30.04 in 6.0 mi Calm Calm - N/A   Partly Cloudy
2:52 AM 52.0 °F 46.0 °F 80% 30.04 in 9.0 mi Calm Calm - N/A   Partly Cloudy
3:52 AM 51.1 °F 45.0 °F 80% 30.03 in 10.0 mi Calm Calm - N/A   Partly Cloudy
4:52 AM 51.1 °F 45.0 °F 80% 30.02 in 10.0 mi Calm Calm - N/A   Partly Cloudy
5:52 AM 51.1 °F 43.0 °F 74% 30.03 in 10.0 mi NNW 3.5 mph - N/A   Scattered Clouds
6:52 AM 52.0 °F 44.1 °F 74% 30.04 in 9.0 mi North 4.6 mph - N/A   Scattered Clouds
7:52 AM 54.0 °F 46.0 °F 75% 30.04 in 10.0 mi Calm Calm - N/A   Scattered Clouds
8:52 AM 61.0 °F 46.0 °F 58% 30.05 in 9.0 mi Calm Calm - N/A   Scattered Clouds
9:52 AM 66.0 °F 41.0 °F 40% 30.04 in 10.0 mi Calm Calm - N/A   Scattered Clouds
10:52 AM 71.1 °F 34.0 °F 26% 30.02 in 10.0 mi Calm Calm - N/A   Scattered Clouds
11:52 AM 72.0 °F 45.0 °F 38% 29.99 in 9.0 mi NW 6.9 mph - N/A   Scattered Clouds
12:52 PM 71.1 °F 46.0 °F 41% 29.96 in 9.0 mi WNW 8.1 mph - N/A   Scattered Clouds
1:52 PM 70.0 °F 53.1 °F 55% 29.95 in 9.0 mi NW 8.1 mph - N/A   Scattered Clouds
2:52 PM 68.0 °F 54.0 °F 61% 29.95 in 7.0 mi NNW 9.2 mph - N/A   Partly Cloudy
3:52 PM 64.9 °F 55.0 °F 70% 29.96 in 8.0 mi NW 10.4 mph - N/A   Partly Cloudy
4:52 PM 63.0 °F 55.9 °F 78% 29.96 in 7.0 mi NW 3.5 mph - N/A   Partly Cloudy
5:52 PM 60.1 °F 55.0 °F 83% 29.97 in 7.0 mi Calm Calm - N/A   Partly Cloudy
6:52 PM 59.0 °F 54.0 °F 83% 29.98 in 7.0 mi Calm Calm - N/A   Partly Cloudy
7:52 PM 59.0 °F 55.0 °F 87% 29.99 in 7.0 mi Calm Calm - 0.01 in   Scattered Clouds
8:52 PM 57.9 °F 55.0 °F 90% 29.99 in 7.0 mi Calm Calm - N/A   Scattered Clouds
9:52 PM 57.9 °F 55.0 °F 90% 29.99 in 7.0 mi SE 4.6 mph - N/A   Mostly Cloudy
10:52 PM 59.0 °F 55.0 °F 87% 30.00 in 6.0 mi ESE 4.6 mph - N/A   Mostly Cloudy
11:52 PM 57.0 °F 53.1 °F 87% 30.00 in 6.0 mi East 3.5 mph - N/A   Mostly Cloudy